HB9FVK-10 Weather Reports


Display with metric or nautical units.
time (UTC)temp
F
wind
direction
speed
MPH
gust
MPH
rain 1hr
in
rain 24hr
in
rain mn
in
humidity
%
barometer
mb
20260510015101 54 137 3.0 5.0 0.00 0.00 0.00 81 1016.3
20260510014040 54 111 2.0 5.0 0.00 0.00 0.00 80 1016.4
20260510013038 54 129 2.0 4.0 0.00 0.00 0.00 79 1016.3
20260510012037 55 118 2.0 5.0 0.00 0.00 0.00 77 1016.2
20260510011037 56 125 2.0 4.0 0.00 0.00 0.00 75 1016.3
20260510010035 55 153 4.0 7.0 0.00 0.00 0.00 76 1016.3
20260510005034 55 131 5.0 7.0 0.00 0.00 0.00 78 1016.3
20260510004033 56 148 4.0 5.0 0.00 0.00 0.00 76 1016.5
20260510003032 55 157 4.0 6.0 0.00 0.00 0.00 75 1016.5
20260510002031 55 153 3.0 5.0 0.00 0.00 0.00 77 1016.6
20260510001029 55 151 5.0 7.0 0.00 0.00 0.00 77 1016.6
20260510000028 55 153 3.0 4.0 0.00 0.00 0.00 78 1016.7
20260509235027 55 151 4.0 5.0 0.00 0.00 0.00 77 1016.8
20260509234046 55 124 3.0 5.0 0.00 0.00 0.00 78 1016.9
20260509233106 55 120 2.0 3.0 0.00 0.00 0.00 78 1016.8
20260509232024 56 141 3.0 4.0 0.00 0.00 0.00 77 1016.9
20260509231023 56 127 2.0 4.0 0.00 0.00 0.00 78 1016.9
20260509230021 56 138 2.0 3.0 0.00 0.00 0.00 75 1016.8
20260509225020 57 115 2.0 5.0 0.00 0.00 0.00 74 1016.9
20260509224019 57 199 3.0 3.0 0.00 0.00 0.00 73 1016.9
20260509223159 58 144 1.0 3.0 0.00 0.00 0.00 74 1017.0
20260509222036 58 0.0 2.0 0.00 0.00 0.00 74 1017.2
20260509221115 59 83 0.0 2.0 0.00 0.00 0.00 73 1017.2
20260509220114 59 111 0.0 1.0 0.00 0.00 0.00 73 1017.3
20260509215133 59 133 0.0 2.0 0.00 0.00 0.00 73 1017.4
20260509214111 59 114 4.0 5.0 0.00 0.00 0.00 73 1017.4
20260509213131 60 113 2.0 2.0 0.00 0.00 0.00 69 1017.4
20260509212109 60 148 2.0 3.0 0.00 0.00 0.00 70 1017.4
20260509211108 60 129 2.0 3.0 0.00 0.00 0.00 70 1017.4
20260509210107 60 137 2.0 3.0 0.00 0.00 0.00 68 1017.4
20260509205105 61 144 2.0 3.0 0.00 0.00 0.00 67 1017.4
20260509204104 62 45 2.0 3.0 0.00 0.00 0.00 64 1017.3
20260509203104 62 27 2.0 3.0 0.00 0.00 0.00 61 1017.3
20260509202102 62 274 1.0 2.0 0.00 0.00 0.00 61 1017.3
20260509201101 62 0.0 0.0 0.00 0.00 0.00 65 1017.4
20260509200100 62 89 1.0 1.0 0.00 0.00 0.00 61 1017.4
20260509195058 62 96 1.0 2.0 0.00 0.00 0.00 61 1017.3
20260509194057 63 135 2.0 2.0 0.00 0.00 0.00 61 1017.3
20260509193056 64 0.0 0.0 0.00 0.00 0.00 61 1017.3
20260509192054 65 120 2.0 2.0 0.00 0.00 0.00 58 1017.3
20260509191113 65 144 2.0 2.0 0.00 0.00 0.00 57 1017.2
20260509190053 65 135 2.0 3.0 0.00 0.00 0.00 56 1017.3
20260509185051 67 111 2.0 3.0 0.00 0.00 0.00 55 1017.1
20260509184049 69 103 1.0 3.0 0.00 0.00 0.00 51 1017.2
20260509183048 70 90 2.0 4.0 0.00 0.00 0.00 46 1017.1
20260509182047 71 73 3.0 4.0 0.00 0.00 0.00 42 1017.1
20260509181046 72 68 2.0 4.0 0.00 0.00 0.00 41 1017.1
20260509180044 72 93 3.0 5.0 0.00 0.00 0.00 40 1017.1
20260509175103 73 70 3.0 4.0 0.00 0.00 0.00 40 1017.0
20260509174102 74 55 5.0 6.0 0.00 0.00 0.00 36 1017.0
20260509173041 74 104 2.0 6.0 0.00 0.00 0.00 38 1017.0
20260509172100 74 145 4.0 5.0 0.00 0.00 0.00 37 1017.0
20260509171038 74 109 3.0 8.0 0.00 0.00 0.00 37 1017.0
20260509170038 74 123 3.0 5.0 0.00 0.00 0.00 36 1017.0
20260509165056 74 135 3.0 9.0 0.00 0.00 0.00 36 1017.0
20260509164034 75 103 3.0 5.0 0.00 0.00 0.00 36 1017.1
20260509163034 74 120 3.0 4.0 0.00 0.00 0.00 36 1017.3
20260509162032 74 105 3.0 6.0 0.00 0.00 0.00 37 1017.3
20260509161030 75 98 5.0 8.0 0.00 0.00 0.00 36 1017.4
20260509160049 74 92 3.0 5.0 0.00 0.00 0.00 37 1017.4
20260509155029 74 135 4.0 5.0 0.00 0.00 0.00 38 1017.5
20260509154027 74 113 5.0 10.0 0.00 0.00 0.00 39 1017.7
20260509153026 74 114 3.0 5.0 0.00 0.00 0.00 38 1017.7
20260509152045 73 83 6.0 9.0 0.00 0.00 0.00 38 1017.6
20260509151024 73 67 3.0 5.0 0.00 0.00 0.00 37 1017.7
20260509150027 73 132 4.0 9.0 0.00 0.00 0.00 36 1017.7
20260509145021 73 85 7.0 9.0 0.00 0.00 0.00 39 1017.7
20260509144020 73 73 6.0 10.0 0.00 0.00 0.00 39 1017.6
20260509143020 73 72 4.0 7.0 0.00 0.00 0.00 41 1017.9
20260509142018 73 47 4.0 7.0 0.00 0.00 0.00 38 1018.2
20260509141017 73 126 4.0 8.0 0.00 0.00 0.00 39 1018.4
20260509140116 73 108 4.0 7.0 0.00 0.00 0.00 41 1018.6
20260509135115 72 15 3.0 6.0 0.00 0.00 0.00 38 1018.6
20260509134113 72 49 5.0 9.0 0.00 0.00 0.00 39 1018.9
20260509133112 72 44 4.0 8.0 0.00 0.00 0.00 38 1019.0
20260509132111 72 84 3.0 6.0 0.00 0.00 0.00 40 1019.1
20260509131110 71 42 3.0 6.0 0.00 0.00 0.00 38 1019.2
20260509130108 71 13 4.0 9.0 0.00 0.00 0.00 39 1019.4
20260509125128 70 25 3.0 6.0 0.00 0.00 0.00 36 1019.5
20260509124107 70 55 1.0 6.0 0.00 0.00 0.00 37 1019.6
20260509123105 72 359 4.0 8.0 0.00 0.00 0.00 38 1019.7
20260509122104 70 166 3.0 5.0 0.00 0.00 0.00 39 1019.7
20260509121124 70 51 4.0 7.0 0.00 0.00 0.00 44 1019.9
20260509115100 69 17 3.0 7.0 0.00 0.00 0.00 43 1020.1
20260509114059 69 5 3.0 5.0 0.00 0.00 0.00 48 1020.3
20260509113058 69 125 2.0 6.0 0.00 0.00 0.00 50 1020.4
20260509112057 68 81 4.0 6.0 0.00 0.00 0.00 52 1020.7
20260509111056 67 279 1.0 2.0 0.00 0.00 0.00 56 1020.8
20260509110115 67 344 2.0 9.0 0.00 0.00 0.00 56 1021.0
20260509105054 66 105 3.0 6.0 0.00 0.00 0.00 57 1021.1
20260509104112 65 349 3.0 6.0 0.00 0.00 0.00 61 1021.2
20260509103051 64 342 3.0 6.0 0.00 0.00 0.00 63 1021.4
20260509102050 64 316 3.0 4.0 0.00 0.00 0.00 65 1021.4
20260509101048 63 273 3.0 5.0 0.00 0.00 0.00 67 1021.7
20260509100048 64 319 4.0 6.0 0.00 0.00 0.00 67 1021.7
20260509095046 63 278 3.0 4.0 0.00 0.00 0.00 68 1021.7
20260509094045 61 298 3.0 5.0 0.00 0.00 0.00 72 1021.9
20260509093044 61 300 3.0 7.0 0.00 0.00 0.00 77 1021.8
20260509092103 61 306 5.0 9.0 0.00 0.00 0.00 76 1022.0
20260509091042 61 271 3.0 7.0 0.00 0.00 0.00 75 1022.1
20260509090040 60 282 3.0 6.0 0.00 0.00 0.00 75 1022.1
20260509085039 59 299 3.0 5.0 0.00 0.00 0.00 75 1022.1
20260509084059 58 304 4.0 9.0 0.00 0.00 0.00 79 1022.2
20260509083037 58 300 4.0 7.0 0.00 0.00 0.00 81 1022.3
20260509082036 55 262 2.0 4.0 0.00 0.00 0.00 86 1022.3
20260509081035 55 305 2.0 6.0 0.00 0.00 0.00 88 1022.4
20260509080034 53 299 2.0 5.0 0.00 0.00 0.00 90 1022.5
20260509075032 52 323 4.0 6.0 0.00 0.00 0.00 95 1022.5
20260509074031 51 280 2.0 6.0 0.00 0.00 0.00 96 1022.5
20260509073030 51 327 2.0 6.0 0.00 0.00 0.00 96 1022.6
20260509072029 50 0.0 1.0 0.00 0.00 0.00 98 1022.6
20260509071048 50 251 2.0 2.0 0.00 0.00 0.00 98 1022.7
20260509070026 0 0.0 0.0 0.00 0.00 0.00 1022.5
20260509065026 49 155 3.0 3.0 0.00 0.00 0.00 98 1022.5
20260509064044 49 300 3.0 3.0 0.00 0.00 0.00 98 1022.4
20260509063103 49 263 3.0 4.0 0.00 0.00 0.00 98 1022.5
20260509062043 49 231 2.0 3.0 0.00 0.00 0.00 99 1022.5
20260509061021 49 221 2.0 3.0 0.00 0.00 0.00 99 1022.6
20260509060039 48 220 2.0 4.0 0.00 0.00 0.00 99 1022.5
20260509055019 48 200 2.0 3.0 0.00 0.00 0.00 99 1022.3
20260509054017 48 247 1.0 3.0 0.00 0.00 0.00 98 1022.4
20260509053016 48 239 2.0 3.0 0.00 0.00 0.00 98 1022.3
20260509052136 48 284 2.0 3.0 0.00 0.00 0.00 98 1022.2
20260509051114 47 202 3.0 6.0 0.00 0.00 0.00 98 1022.1
20260509050133 47 248 3.0 4.0 0.00 0.00 0.00 98 1021.8
20260509045111 47 227 2.0 3.0 0.00 0.00 0.00 98 1021.7
20260509044110 47 235 2.0 4.0 0.00 0.00 0.00 98 1021.8
20260509043129 48 234 1.0 3.0 0.00 0.00 0.00 98 1021.9
20260509042108 48 216 2.0 2.0 0.00 0.00 0.00 98 1021.9
20260509041107 0 0.0 0.0 0.00 0.00 0.00 1021.8
20260509040105 0 0.0 0.0 0.00 0.00 0.00 1021.8
20260509035104 0 0.0 0.0 0.00 0.00 0.00 1021.7
20260509034103 0 0.0 0.0 0.00 0.00 0.00 1021.7
20260509033102 0 0.0 0.0 0.00 0.00 0.00 1021.6
20260509032101 0 0.0 0.0 0.00 0.00 0.00 1021.6
20260509031120 0 0.0 0.0 0.00 0.00 0.00 1021.6
20260509030058 0 0.0 0.0 0.00 0.00 0.00 1021.8
20260509025117 48 241 3.0 4.0 0.00 0.00 0.00 98 1021.7
20260509024056 48 241 3.0 4.0 0.00 0.00 0.00 98 1021.7
20260509023055 48 214 4.0 6.0 0.00 0.00 0.00 98 1021.7
20260509022134 48 208 2.0 5.0 0.00 0.00 0.00 98 1021.8
20260509021053 48 277 1.0 2.0 0.00 0.00 0.00 98 1021.7
20260509020113 48 0.0 2.0 0.00 0.00 0.00 98 1021.7